Regional Weather Roundup
Issued by NWS

Home | Current Version | Previous Version | Text Only | Print | Product List | Glossary On
Versions: 1 2 3 4 5 6 7 8 9 10 11 12 13 14 15 16 17 18 19 20 21 22 23 24 25 26 27 28 29 30 31 32 33 34 35 36 37 38 39 40 41 42 43 44 45 46 47 48 49 50
000
ASUS43 KLSX 270907
RWRMO

WEATHER SUMMARY FOR MISSOURI
NATIONAL WEATHER SERVICE SPRINGFIELD MO
300 AM CST THU NOV 27 2014

NOTE: "FAIR" INDICATES FEW OR NO CLOUDS BELOW 12,000 FEET WITH NO
       SIGNIFICANT WEATHER AND/OR OBSTRUCTIONS TO VISIBILITY.
       CURRENT SKY AND/OR WEATHER CONDITIONS ARE NOT AVAILABLE FOR
       CHILLICOTHE AND FARMINGTON.

MOZ001>031-035>038-043-044-053-054-271000-
...NORTHERN AND WESTERN MISSOURI...

CITY           SKY/WX    TMP DP  RH WIND       PRES   REMARKS
KANSAS CTY INT CLOUDY    26  21  81 NW10      30.46S WCI  16
KANSAS C DTWN  CLOUDY    29  21  72 NW8       30.47S WCI  21
LEE`S SUMMIT   CLOUDY    27  21  78 NW9       30.46R WCI  18
ST JOSEPH      CLOUDY    26  20  77 NW17      30.49R WCI  13
CHILLICOTHE      N/A     28  22  78 NW7       30.45R WCI  21
KIRKSVILLE     CLOUDY    27  25  92 NW14      30.39R FOG     WCI  16

$$
MOZ066>068-077>081-088>096-101>105-271000-
...SOUTHWEST MISSOURI...

CITY           SKY/WX    TMP DP  RH WIND       PRES   REMARKS
SPRINGFIELD    CLOUDY    30  24  78 NW17      30.40R WCI  18
JOPLIN         MOCLDY    27  22  81 NW5       30.46R WCI  22

$$
MOZ032>034-039>042-045>050-055>058-069>072-271000-
...CENTRAL MISSOURI...

CITY           SKY/WX    TMP DP  RH WIND       PRES   REMARKS
COLUMBIA       CLOUDY    32  28  85 NW12      30.39R WCI  23
JEFFERSON CITY CLOUDY    33  28  81 NW9       30.40R WCI  25
ROLLA          CLOUDY    31  29  92 NW8       30.33R WCI  23
SEDALIA        CLOUDY    30  22  72 NW14G24   30.44R WCI  19
WHITEMAN AFB   CLOUDY    29  23  78 NW13      30.45R WCI  18
WARRENSBURG    CLOUDY    30  23  74 NW9       30.46R WCI  22
OSAGE BEACH    CLOUDY    32  27  80 NW13      30.40R WCI  22

$$
MOZ051-052-059>065-271000-
...EAST CENTRAL MISSOURI...

CITY           SKY/WX    TMP DP  RH WIND       PRES   REMARKS
ST LOUIS INTL  LGT SNOW  32  27  81 N8        30.34R FOG     WCI  25
SPIRIT OF STL  CLOUDY    32  28  85 NW7       30.34R WCI  26
ST CHARLES     CLOUDY    30  27  88 N14G20    30.34R WCI  19

$$
MOZ072>076-082>087-097>100-106>115-271000-
...SOUTH CENTRAL AND SOUTHEAST MISSOURI...

CITY           SKY/WX    TMP DP  RH WIND       PRES   REMARKS
CAPE GIRARDEAU CLOUDY    37  32  82 NW17G24   30.27R WCI  27
FARMINGTON     CLOUDY    34  28  80 NW13G20   30.31R WCI  25
POPLAR BLUFF   CLOUDY    37  27  67 NW16G23   30.29R WCI  28
WEST PLAINS    CLOUDY    32  25  75 NW12      30.34R WCI  23

$$



USA.gov is the U.S. government's official web portal to all federal, state and local government web resources and services.